Torna al catalogo

ISTSAT-1

AttivoScienzaVLEO
NORAD 60238·PAYLOAD·🇵🇹 Portugal

Lanciato Jul 9, 2024 da Guiana Space Centre

Loading…

Prossimi Passaggi (prossime 24 ore)

TLE

AggiornatoSource: Space-Track

Epoca: Sep 14, 2026, 14:11 UTC

1 60238U 24128D   26257.59100266  .00004768  00000-0  28281-3 0  9996
2 60238  61.9867 249.7754 0025233 148.3057 211.9565 15.12547399119982

Traccia ISTSAT-1 in tempo reale con AllMySat

Download on the App Store